Tracking 30923 objects as of 1-Jul-2025
HD Live streaming from Space Station
objects crossing your sky now

FENGYUN 1C DEB

Track FENGYUN 1C DEB now!
10-day predictions


NORAD ID: 31844
Int'l Code: 1999-025CJJ
Perigee: 760.2 km
Apogee: 911.6 km
Inclination: 100.3 °
Period: 101.5 minutes
Semi major axis: 7206 km
RCS: 0.0099 m2 (small)
Launch date: May 10, 1999
Source: People's Republic of China (PRC)
Launch site: Taiyaun Space Center, China (TSC)

Note: This is SATELLITE DEBRIS
Your satellite tracking list
BREEZE-M DEB
Track 1 satellite(s)




NASA's NSSDC Master Catalog

Two Line Element Set (TLE):
1 31844U 99025CJJ 25181.84902326  .00001206  00000-0  57245-3 0  9991
2 31844 100.2838 144.0419 0105052  81.0584 280.2461 14.18984444929916
Source of the keplerian elements: AFSPC